Wind_Gust
13 14 15 16 23 23 19 19 18 19 19 21 21 22 25 25 26 27 28 29 22 22 25 24 20 18 18 19 20 20 25 29 29 27 29 29 24 24 23 20 16 19
28 29 21 22 25 24 22 20 20 21 22 24 23 22 20 23 23 23 27 26 20 25 25 25 21 19 23 22 20 26 27 27 26 26 27 27 26 25 24 22 20 18
26 26 23 23 25 22 24 23 19 21 25 25 21 22 19 16 20 18 16 17 21 20 19 21 21 19 15 17 19 16 21 23 24 21 20 22 23 24 23 22 21 20
23 23 22 24 24 23 22 20 20 19 18 21 24 25 20 18 14 17 16 17 19 19 19 19 22 24 24 26 22 24 25 21 21 21 22 20 21 22 22 21 21 20
19 21 21 22 22 21 20 22 22 20 22 26 26 20 18 15 17 14 13 16 15 13 20 21 20 22 22 20 21 21 21 20 19 18 19 21 21 20 21 20 19 20
15 18 21 21 21 20 22 22 22 21 21 21 24 16 23 22 21 24 22 19 18 17 16 18 21 23 22 22 23 24 25 23 21 18 19 21 20 18 19 20 20 21
14 16 17 21 19 21 22 23 20 19 20 18 17 19 21 23 24 26 27 24 22 21 19 19 20 22 18 22 25 26 26 23 22 20 21 21 18 19 19 20 22 21
11 12 16 17 19 19 17 19 19 21 21 20 16 18 24 23 23 24 22 21 25 26 23 21 20 19 18 20 22 23 24 24 22 23 22 22 20 21 21 22 20 21
14 16 12 9 11 14 20 24 24 24 25 21 20 17 19 22 25 23 23 22 23 24 23 25 24 25 21 22 23 23 24 23 22 24 25 25 25 26 25 22 20 22
18 18 15 16 17 19 19 20 22 18 18 19 20 21 20 20 20 23 22 21 21 22 22 23 24 25 23 22 27 26 24 24 24 23 24 25 25 25 24 24 24 24
18 19 17 13 19 21 19 17 15 15 14 16 18 18 19 18 19 18 19 20 20 21 23 23 23 21 20 21 22 22 24 25 24 23 24 25 25 24 20 24 25 25
17 16 17 15 13 14 19 15 15 14 15 18 17 13 17 19 21 19 20 21 21 26 26 24 22 22 23 24 24 23 23 23 23 23 24 25 25 24 24 24 26 26
18 17 16 17 14 15 14 14 21 26 25 20 13 17 23 19 19 22 23 23 26 26 25 25 24 22 23 23 24 23 24 23 24 23 24 24 24 25 25 25 26 27
17 16 15 17 17 16 15 14 14 21 22 23 21 26 27 23 22 22 24 23 25 25 26 24 22 21 21 21 21 21 22 23 25 25 25 25 24 25 25 25 25 26
17 16 16 17 17 17 17 16 15 15 21 24 26 26 24 26 27 26 24 24 23 23 23 23 24 24 24 24 22 23 22 24 26 26 26 26 25 26 25 25 24 24
22 19 19 17 17 17 17 16 15 13 15 16 17 20 23 29 31 25 24 26 30 32 31 27 25 25 22 26 22 23 23 25 25 26 26 26 26 26 25 26 26 25
19 19 20 20 19 17 16 15 15 13 12 17 19 16 19 19 21 27 28 27 28 29 31 29 25 24 22 24 26 27 25 24 26 25 25 26 25 26 26 26 26 27
19 19 20 21 19 19 17 15 15 13 13 14 15 15 19 22 22 24 26 26 29 30 28 26 25 21 25 25 26 28 26 29 26 27 26 27 28 29 29 26 26 26
19 19 20 21 20 18 16 16 14 14 15 15 15 15 16 17 23 24 24 24 26 26 29 29 29 23 27 27 26 26 26 25 26 25 26 28 29 30 29 29 27 27
21 21 21 21 19 18 17 16 15 15 15 13 12 12 11 12 14 21 23 24 25 24 25 30 30 22 28 29 27 27 27 25 26 27 29 28 28 28 29 29 29 28
21 21 22 21 20 19 17 17 17 17 17 16 14 13 13 13 13 13 18 18 19 25 25 24 27 21 25 29 29 26 26 24 27 27 27 27 28 25 28 29 29 28
22 23 23 20 20 19 17 19 19 18 18 17 15 15 13 11 10 9 13 14 17 23 26 28 30 22 23 24 28 29 28 27 28 29 28 28 28 27 28 30 29 27
24 25 23 21 21 20 19 19 19 20 19 17 16 16 17 19 17 13 13 13 15 15 18 21 24 22 21 25 27 30 24 26 28 29 30 30 28 26 27 26 25 26
25 24 22 23 21 20 22 22 20 19 17 17 15 16 19 21 19 18 17 17 17 18 20 19 17 18 23 25 25 24 23 25 30 31 30 31 30 28 26 25 25 26
25 24 22 23 21 20 23 23 21 19 18 17 17 17 19 21 19 18 17 16 17 18 19 22 20 20 23 27 28 29 33 30 34 35 32 31 30 28 26 25 26 23
25 24 23 24 22 21 22 22 19 19 18 17 19 19 19 19 19 18 18 18 18 18 20 20 21 22 24 28 28 25 28 29 29 34 36 37 35 30 27 25 26 25
Wind_Speed
7 7 8 8 8 8 9 9 7 7 7 7 8 8 9 9 7 7 9 9 8 7 6 5 8 10 10 10 10 10 9 10 9 9 11 11 10 12 12 11 10 10
9 8 8 7 7 7 8 8 9 8 9 8 7 6 4 5 7 8 7 5 6 8 7 2 3 5 7 7 6 6 7 9 11 9 10 12 11 11 13 13 12 10
8 7 8 9 9 10 10 9 8 7 8 8 6 6 6 4 4 4 4 6 8 8 7 9 11 11 7 7 11 8 8 8 10 8 8 10 10 10 11 11 10 11
7 8 8 9 8 9 8 7 7 7 7 6 8 8 7 5 4 5 6 8 9 8 7 7 9 10 11 14 13 8 8 9 9 8 9 8 9 11 11 9 10 9
4 4 4 5 6 7 5 6 8 7 6 7 6 4 6 7 7 7 7 7 7 7 7 9 9 9 8 8 9 11 10 8 8 9 10 11 10 10 10 9 10 11
3 3 4 6 7 6 7 7 6 6 8 8 9 6 5 4 5 7 8 8 7 8 9 8 9 9 9 11 12 11 10 8 10 10 11 12 10 9 8 10 11 11
5 4 3 4 6 6 7 7 7 8 8 7 6 8 8 8 8 8 6 7 7 8 9 9 10 10 9 11 11 11 11 11 12 10 12 12 9 10 10 10 11 12
5 4 4 4 5 4 6 7 7 7 6 3 5 6 8 9 10 10 9 8 7 2 5 6 7 8 9 10 11 11 11 10 11 12 13 13 10 11 11 10 10 11
5 5 5 5 6 5 3 5 6 6 4 5 6 5 6 9 10 9 7 9 9 10 10 6 6 8 6 8 10 11 12 11 11 12 13 13 12 13 12 10 10 11
7 7 7 7 7 6 6 4 5 7 6 6 7 5 7 7 10 10 9 9 9 10 10 12 13 14 13 12 13 12 12 12 12 12 13 13 12 13 12 11 11 12
8 8 8 9 9 8 8 7 5 5 5 6 6 6 8 8 7 7 9 9 10 11 12 13 13 13 12 11 11 11 11 11 12 12 12 12 12 12 11 11 12 13
11 10 10 9 8 8 9 8 7 5 6 6 5 7 8 8 8 8 8 9 10 11 10 11 11 11 12 13 13 13 13 13 12 12 13 13 12 12 12 12 13 14
9 10 9 9 8 8 8 8 8 7 5 6 4 6 7 7 7 8 8 9 11 10 10 11 11 11 11 12 12 12 12 11 12 12 13 12 13 13 13 13 14 14
10 10 9 10 9 9 9 8 8 8 7 5 3 4 6 7 8 10 9 8 10 10 10 10 10 10 10 11 11 11 10 11 12 12 13 13 13 13 14 13 14 14
10 9 9 10 10 10 10 10 9 8 7 6 3 2 4 4 5 6 7 7 8 9 9 8 9 10 9 8 9 10 10 11 11 11 12 12 12 13 13 13 13 13
10 9 10 10 10 10 9 9 9 7 7 7 6 4 3 3 3 4 6 7 8 8 8 8 9 8 11 16 14 10 10 9 9 9 9 10 11 12 12 13 14 13
10 10 10 11 10 10 9 9 9 7 7 7 7 6 4 3 3 5 6 7 8 8 8 9 9 10 15 15 16 15 10 9 9 10 10 12 12 13 13 12 12 13
9 10 10 10 10 11 10 9 8 8 8 8 7 6 6 3 3 6 6 6 7 7 8 9 9 12 15 14 14 15 12 10 8 9 11 11 13 14 13 12 12 12
9 9 9 10 10 10 9 8 9 9 9 9 9 8 4 4 4 4 5 5 6 8 10 10 10 13 14 15 14 14 14 10 10 11 12 12 12 13 13 13 12 13
9 9 9 9 10 10 9 9 9 9 9 8 7 8 7 6 5 5 5 5 5 7 9 9 10 12 15 15 15 16 16 10 7 11 12 12 12 11 10 12 14 13
10 10 10 10 10 10 9 10 10 10 10 9 8 8 8 8 7 6 5 5 5 6 7 8 9 13 13 14 15 16 14 9 8 10 10 12 13 12 11 10 10 10
9 10 10 10 10 10 10 10 11 10 10 9 9 9 8 6 6 4 5 6 6 6 6 8 9 13 14 14 13 13 11 6 7 9 10 10 12 12 12 12 12 12
9 9 10 10 10 10 10 10 10 11 10 9 8 9 10 11 10 8 8 8 9 9 9 8 8 11 13 12 12 12 6 5 7 9 9 11 12 12 12 12 12 12
8 9 9 9 9 10 10 10 10 8 8 9 8 8 10 10 10 9 9 9 10 11 12 11 10 13 21 23 22 19 11 5 6 7 9 10 11 12 11 11 12 16
7 8 8 9 9 9 10 10 10 9 8 8 7 8 8 8 9 9 9 8 9 10 15 14 11 13 18 19 20 23 18 10 8 7 8 9 9 10 10 11 12 14
9 9 9 8 9 9 9 9 8 8 9 9 8 9 9 8 9 8 9 9 9 11 10 11 11 12 14 18 18 19 20 13 11 12 10 10 9 9 9 9 10 11
Wind_Direction
225 216 226 223 220 213 219 224 221 219 221 220 217 217 206 207 223 231 209 198 192 184 177 167 174 199 212 209 203 204 204 204 206 207 209 205 210 213 218 217 213 215
230 219 222 227 231 225 224 223 222 215 222 228 233 235 229 210 205 202 207 193 175 186 192 132 41 349 348 346 311 254 227 210 211 209 216 215 215 214 222 220 218 218
231 221 220 223 223 223 223 225 225 221 222 227 234 238 237 217 193 193 195 187 199 197 166 163 179 199 191 229 251 249 238 230 224 215 219 225 222 222 226 225 223 215
239 230 226 227 231 234 230 228 228 229 227 224 220 222 221 215 183 187 193 196 202 205 187 190 201 204 197 207 214 223 229 235 234 219 220 220 221 223 223 221 226 223
257 244 246 251 249 247 242 231 232 232 236 239 246 231 218 209 201 194 196 204 206 203 199 203 204 205 196 209 211 221 211 214 232 234 232 227 224 221 222 216 218 223
311 241 239 242 242 235 228 224 219 206 208 215 221 204 207 212 211 205 201 200 205 207 209 210 209 210 197 203 210 220 218 210 222 227 238 236 230 222 223 220 217 219
324 324 289 266 264 243 237 230 219 218 217 218 202 208 204 204 206 206 205 211 213 215 214 210 209 210 206 214 216 216 217 215 222 217 228 236 231 228 224 225 222 221
317 310 310 319 312 272 238 243 237 229 221 220 210 204 190 202 212 214 210 206 207 261 268 252 230 220 209 214 222 223 222 218 221 218 224 229 223 229 227 226 226 225
336 342 336 338 341 329 270 252 254 254 234 218 220 201 187 194 207 206 196 199 180 203 209 218 244 243 229 230 231 227 227 226 222 221 225 224 220 223 224 224 228 229
353 345 346 344 343 332 315 281 251 254 247 230 233 201 185 194 199 200 200 206 204 212 215 216 219 224 211 203 216 221 224 226 223 225 230 229 226 225 222 220 225 231
349 345 345 342 338 330 323 314 294 262 244 235 225 215 214 204 204 202 208 208 213 216 214 217 217 221 221 215 214 217 221 225 225 226 232 235 234 232 224 219 224 228
346 347 346 341 336 331 325 320 311 290 269 257 220 208 214 210 197 203 216 220 220 220 215 219 221 220 217 214 209 207 214 217 221 223 228 231 234 236 233 225 225 228
353 347 343 340 337 334 329 325 321 315 290 270 251 211 209 213 206 211 215 222 231 226 222 221 221 222 220 218 216 216 221 220 220 223 226 229 231 231 233 231 230 231
349 343 344 339 335 335 336 333 328 329 330 305 272 211 216 210 207 217 219 214 232 233 229 224 223 226 223 221 222 222 221 222 221 224 227 228 229 229 231 232 232 232
342 343 341 341 337 334 336 337 334 329 329 326 294 235 237 231 220 226 239 233 235 240 245 240 233 230 230 225 221 224 225 226 225 226 229 231 232 234 234 234 234 233
341 342 342 339 340 334 328 331 333 332 335 336 318 276 254 253 240 235 239 244 242 242 243 244 243 239 230 222 218 221 221 225 229 233 237 241 243 242 240 238 237 235
343 342 339 342 338 331 327 332 338 334 335 334 329 318 289 249 227 229 237 243 247 246 243 239 244 247 242 233 230 226 221 219 221 229 234 236 237 240 244 243 242 241
341 338 341 342 342 339 332 334 341 342 339 334 324 325 321 295 240 236 235 239 248 254 251 248 245 248 253 251 244 241 237 242 241 233 231 231 233 235 235 240 244 243
336 338 341 345 347 342 337 339 344 343 341 336 327 314 309 308 282 262 248 244 243 249 252 251 252 248 249 249 246 245 243 233 245 245 246 244 238 232 229 231 238 243
339 343 346 349 347 343 342 346 347 341 331 324 319 314 308 300 290 277 270 255 246 246 255 258 255 257 249 249 247 243 240 223 242 250 254 253 247 242 233 223 226 234
349 350 351 351 346 343 346 348 345 339 335 331 325 318 313 307 300 299 289 281 276 267 267 269 266 266 257 249 248 246 242 210 222 233 245 251 249 244 241 240 240 240
353 353 351 349 347 346 349 347 342 338 335 333 335 335 332 319 309 306 311 317 309 301 285 279 281 279 275 271 267 259 248 215 226 233 243 251 250 247 237 233 234 232
358 358 351 348 346 348 349 345 341 338 340 346 351 1 8 15 11 5 2 357 345 338 323 302 297 298 300 299 290 283 279 214 230 230 235 241 246 247 246 244 242 235
2 0 354 350 348 350 344 340 338 337 350 348 358 8 14 15 9 7 13 8 2 3 359 352 346 347 2 3 356 336 313 265 236 236 231 239 243 244 244 241 239 230
4 1 358 353 352 349 346 342 343 340 346 349 4 14 11 10 7 4 1 4 4 2 4 7 2 3 7 6 13 15 6 331 300 248 244 244 243 247 241 237 237 229
357 359 359 359 355 350 347 344 340 350 355 360 8 11 5 7 10 6 4 1 359 4 7 5 358 355 359 360 11 16 15 7 354 331 304 277 267 265 265 252 244 245